| time (UTC) | temp F | wind direction | speed knots | gust knots | rain 1hr in | rain 24hr in | rain mn in | humidity % | barometer mb |
| 20260502214520 | 58 | 2.6 | 10.4 | 0.00 | 0.19 | 0.19 | 97 | 1013.2 | |
| 20260502213517 | 58 | 2.6 | 4.3 | 0.00 | 0.19 | 0.19 | 97 | 1013.4 | |
| 20260502212515 | 58 | 2.6 | 3.5 | 0.02 | 0.19 | 0.19 | 97 | 1013.4 | |
| 20260502211613 | 57 | 2.6 | 3.5 | 0.04 | 0.19 | 0.19 | 98 | 1013.7 | |
| 20260502210610 | 58 | 3.5 | 5.2 | 0.05 | 0.19 | 0.19 | 98 | 1013.6 | |
| 20260502205608 | 58 | 2.6 | 4.3 | 0.05 | 0.19 | 0.19 | 97 | 1013.7 | |
| 20260502204605 | 58 | 2.6 | 7.0 | 0.06 | 0.19 | 0.19 | 96 | 1013.9 | |
| 20260502203602 | 58 | 1.7 | 6.1 | 0.07 | 0.19 | 0.19 | 93 | 1014.4 | |
| 20260502202600 | 58 | 2.6 | 10.4 | 0.05 | 0.17 | 0.17 | 92 | 1014.6 | |
| 20260502201557 | 58 | 8.7 | 13.9 | 0.06 | 0.15 | 0.15 | 91 | 1014.6 | |
| 20260502200555 | 59 | 8.7 | 14.8 | 0.05 | 0.14 | 0.14 | 89 | 1014.6 | |
| 20260502195552 | 58 | 7.8 | 11.3 | 0.05 | 0.14 | 0.14 | 90 | 1014.6 | |
| 20260502194550 | 57 | 7.8 | 12.2 | 0.04 | 0.13 | 0.13 | 94 | 1014.9 | |
| 20260502193547 | 57 | 10.4 | 20.0 | 0.04 | 0.12 | 0.12 | 95 | 1015.1 | |
| 20260502192545 | 58 | 11.3 | 23.5 | 0.04 | 0.12 | 0.12 | 96 | 1015.1 | |
| 20260502191542 | 60 | 13.9 | 26.1 | 0.09 | 0.09 | 0.09 | 92 | 1014.9 | |
| 20260502190539 | 60 | 13.0 | 35.6 | 0.09 | 0.09 | 0.09 | 86 | 1014.3 | |
| 20260502185537 | 60 | 0.9 | 1.7 | 0.09 | 0.09 | 0.09 | 87 | 1013.8 | |
| 20260502184534 | 60 | 3.5 | 9.6 | 0.09 | 0.09 | 0.09 | 84 | 1013.5 | |
| 20260502183532 | 61 | 1.7 | 7.0 | 0.08 | 0.08 | 0.08 | 86 | 1013.6 | |
| 20260502182529 | 68 | 4.3 | 9.6 | 0.08 | 0.08 | 0.08 | 84 | 1013.9 | |
| 20260502181527 | 69 | 0.0 | 1.7 | 0.00 | 0.00 | 0.00 | 69 | 1013.5 | |
| 20260502180524 | 69 | 0.0 | 2.6 | 0.00 | 0.00 | 0.00 | 66 | 1013.3 | |
| 20260502163602 | 74 | 1.7 | 5.2 | 0.00 | 0.00 | 0.00 | 64 | 1014.3 | |
| 20260502162559 | 73 | 0.0 | 3.5 | 0.00 | 0.00 | 0.00 | 65 | 1014.5 | |
| 20260502161557 | 71 | 0.9 | 3.5 | 0.00 | 0.00 | 0.00 | 68 | 1014.5 | |
| 20260502160554 | 70 | 0.9 | 2.6 | 0.00 | 0.00 | 0.00 | 74 | 1014.9 | |
| 20260502151541 | 66 | 2.6 | 7.0 | 0.00 | 0.00 | 0.00 | 80 | 1015.2 | |
| 20260502150539 | 66 | 2.6 | 7.0 | 0.00 | 0.00 | 0.00 | 77 | 1015.4 | |
| 20260502130608 | 76 | 6.1 | 18.2 | 0.00 | 0.00 | 0.00 | 57 | 1016.2 | |
| 20260502123601 | 75 | 3.5 | 14.8 | 0.00 | 0.00 | 0.00 | 59 | 1016.6 | |
| 20260502122558 | 75 | 3.5 | 11.3 | 0.00 | 0.00 | 0.00 | 58 | 1016.7 | |
| 20260502121556 | 75 | 2.6 | 9.6 | 0.00 | 0.00 | 0.00 | 58 | 1016.7 | |
| 20260502120553 | 74 | 3.5 | 7.8 | 0.00 | 0.00 | 0.00 | 59 | 1016.9 | |
| 20260502115551 | 74 | 2.6 | 7.0 | 0.00 | 0.00 | 0.00 | 58 | 1017.1 | |
| 20260502114548 | 75 | 2.6 | 7.8 | 0.00 | 0.00 | 0.00 | 57 | 1017.0 | |
| 20260502113546 | 75 | 3.5 | 12.2 | 0.00 | 0.00 | 0.00 | 57 | 1017.3 | |
| 20260502112543 | 74 | 2.6 | 11.3 | 0.00 | 0.00 | 0.00 | 58 | 1017.3 | |
| 20260502111541 | 73 | 3.5 | 9.6 | 0.00 | 0.00 | 0.00 | 58 | 1017.5 | |
| 20260502110538 | 73 | 1.7 | 10.4 | 0.00 | 0.00 | 0.00 | 58 | 1017.5 | |
| 20260502105535 | 73 | 2.6 | 8.7 | 0.00 | 0.00 | 0.00 | 59 | 1017.6 | |
| 20260502104533 | 73 | 1.7 | 7.0 | 0.00 | 0.00 | 0.00 | 58 | 1017.7 | |
| 20260502103530 | 73 | 1.7 | 7.0 | 0.00 | 0.00 | 0.00 | 57 | 1017.7 | |
| 20260502102528 | 72 | 3.5 | 8.7 | 0.00 | 0.00 | 0.00 | 57 | 1017.9 | |
| 20260502101525 | 72 | 3.5 | 10.4 | 0.00 | 0.00 | 0.00 | 56 | 1018.1 | |
| 20260502100523 | 71 | 1.7 | 6.1 | 0.00 | 0.00 | 0.00 | 57 | 1018.2 | |
| 20260502090608 | 70 | 2.6 | 9.6 | 0.00 | 0.00 | 0.00 | 55 | 1018.4 | |
| 20260502070537 | 64 | 0.9 | 5.2 | 0.00 | 0.00 | 0.00 | 55 | 1018.6 | |
| 20260502065535 | 63 | 1.7 | 7.0 | 0.00 | 0.00 | 0.00 | 56 | 1018.7 | |
| 20260502064532 | 62 | 1.7 | 4.3 | 0.00 | 0.00 | 0.00 | 57 | 1018.8 | |
| 20260502063530 | 62 | 2.6 | 6.1 | 0.00 | 0.00 | 0.00 | 59 | 1018.9 | |
| 20260502062527 | 61 | 2.6 | 9.6 | 0.00 | 0.00 | 0.00 | 59 | 1018.9 | |
| 20260502061525 | 61 | 2.6 | 8.7 | 0.00 | 0.00 | 0.00 | 59 | 1018.9 | |
| 20260502060522 | 60 | 2.6 | 9.6 | 0.00 | 0.00 | 0.00 | 58 | 1018.8 | |
| 20260502055520 | 60 | 1.7 | 3.5 | 0.00 | 0.00 | 0.00 | 58 | 1018.8 | |
| 20260502054517 | 59 | 1.7 | 4.3 | 0.00 | 0.00 | 0.00 | 59 | 1018.9 | |
| 20260502053515 | 59 | 2.6 | 5.2 | 0.00 | 0.00 | 0.00 | 59 | 1018.8 | |
| 20260502052612 | 58 | 2.6 | 6.1 | 0.00 | 0.00 | 0.00 | 59 | 1018.8 | |
| 20260502051610 | 58 | 2.6 | 7.0 | 0.00 | 0.00 | 0.00 | 59 | 1019.0 | |
| 20260502050607 | 59 | 2.6 | 7.0 | 0.00 | 0.00 | 0.00 | 58 | 1018.8 | |
| 20260502045605 | 58 | 2.6 | 8.7 | 0.00 | 0.00 | 0.00 | 58 | 1018.8 | |
| 20260502044602 | 58 | 2.6 | 6.1 | 0.00 | 0.00 | 0.00 | 59 | 1018.7 | |
| 20260502043600 | 58 | 2.6 | 6.1 | 0.00 | 0.00 | 0.00 | 59 | 1018.7 | |
| 20260502042557 | 58 | 2.6 | 7.0 | 0.00 | 0.00 | 0.00 | 58 | 1018.9 | |
| 20260502041555 | 58 | 2.6 | 5.2 | 0.00 | 0.00 | 0.00 | 58 | 1018.8 | |
| 20260502040552 | 58 | 1.7 | 5.2 | 0.00 | 0.00 | 0.00 | 58 | 1018.9 | |
| 20260502035550 | 58 | 2.6 | 7.0 | 0.00 | 0.00 | 0.00 | 58 | 1019.1 | |
| 20260502034547 | 58 | 1.7 | 7.0 | 0.00 | 0.00 | 0.00 | 58 | 1019.0 | |
| 20260502033544 | 58 | 2.6 | 6.1 | 0.00 | 0.00 | 0.00 | 58 | 1019.2 | |
| 20260502032542 | 59 | 2.6 | 5.2 | 0.00 | 0.00 | 0.00 | 58 | 1019.2 | |
| 20260502031539 | 59 | 1.7 | 5.2 | 0.00 | 0.00 | 0.00 | 57 | 1019.2 | |
| 20260502030537 | 59 | 2.6 | 6.1 | 0.00 | 0.00 | 0.00 | 56 | 1019.2 | |
| 20260502025534 | 59 | 2.6 | 7.0 | 0.00 | 0.00 | 0.00 | 56 | 1019.4 | |
| 20260502024532 | 59 | 2.6 | 6.1 | 0.00 | 0.00 | 0.00 | 56 | 1019.4 | |
| 20260502023529 | 60 | 2.6 | 9.6 | 0.00 | 0.00 | 0.00 | 56 | 1019.4 | |
| 20260502022527 | 60 | 1.7 | 11.3 | 0.00 | 0.00 | 0.00 | 56 | 1019.5 | |
| 20260502021524 | 60 | 2.6 | 7.0 | 0.00 | 0.00 | 0.00 | 55 | 1019.5 | |
| 20260502020522 | 60 | 2.6 | 9.6 | 0.00 | 0.00 | 0.00 | 55 | 1019.4 | |
| 20260502015519 | 60 | 2.6 | 7.8 | 0.00 | 0.00 | 0.00 | 55 | 1019.6 | |
| 20260502014517 | 60 | 2.6 | 7.8 | 0.00 | 0.00 | 0.00 | 55 | 1019.8 | |
| 20260502013614 | 60 | 2.6 | 8.7 | 0.00 | 0.00 | 0.00 | 56 | 1019.8 | |
| 20260502012612 | 60 | 2.6 | 7.0 | 0.00 | 0.00 | 0.00 | 56 | 1019.9 | |
| 20260502011609 | 60 | 2.6 | 7.0 | 0.00 | 0.00 | 0.00 | 56 | 1019.9 | |
| 20260502010607 | 60 | 2.6 | 6.1 | 0.00 | 0.00 | 0.00 | 56 | 1020.1 | |
| 20260502005604 | 60 | 2.6 | 6.1 | 0.00 | 0.00 | 0.00 | 55 | 1020.1 | |
| 20260502004602 | 60 | 2.6 | 8.7 | 0.00 | 0.00 | 0.00 | 55 | 1020.2 | |
| 20260502003559 | 60 | 2.6 | 7.0 | 0.00 | 0.00 | 0.00 | 55 | 1020.3 | |
| 20260502002557 | 60 | 2.6 | 4.3 | 0.00 | 0.00 | 0.00 | 54 | 1020.3 | |
| 20260502001554 | 60 | 2.6 | 6.1 | 0.00 | 0.00 | 0.00 | 54 | 1020.4 | |
| 20260502000551 | 61 | 2.6 | 7.0 | 0.00 | 0.00 | 0.00 | 53 | 1020.5 | |
| 20260501235549 | 61 | 3.5 | 7.8 | 0.00 | 0.00 | 0.00 | 52 | 1020.6 | |
| 20260501234546 | 62 | 2.6 | 7.8 | 0.00 | 0.00 | 0.00 | 52 | 1020.6 | |
| 20260501233544 | 62 | 2.6 | 7.8 | 0.00 | 0.00 | 0.00 | 52 | 1020.8 | |
| 20260501232541 | 62 | 3.5 | 7.0 | 0.00 | 0.00 | 0.00 | 51 | 1020.7 | |
| 20260501231539 | 62 | 3.5 | 7.8 | 0.00 | 0.00 | 0.00 | 51 | 1020.6 | |
| 20260501230536 | 62 | 3.5 | 10.4 | 0.00 | 0.00 | 0.00 | 51 | 1020.7 | |
| 20260501225534 | 63 | 2.6 | 7.0 | 0.00 | 0.00 | 0.00 | 50 | 1020.8 | |
| 20260501224531 | 63 | 3.5 | 12.2 | 0.00 | 0.00 | 0.00 | 49 | 1020.8 | |
| 20260501223529 | 63 | 3.5 | 8.7 | 0.00 | 0.00 | 0.00 | 48 | 1020.9 | |
| 20260501222526 | 64 | 3.5 | 10.4 | 0.00 | 0.00 | 0.00 | 47 | 1020.9 | |
| 20260501221523 | 64 | 3.5 | 9.6 | 0.00 | 0.00 | 0.00 | 47 | 1021.1 | |
| 20260501220521 | 65 | 3.5 | 10.4 | 0.00 | 0.00 | 0.00 | 46 | 1021.0 | |
| 20260501215518 | 65 | 3.5 | 10.4 | 0.00 | 0.00 | 0.00 | 46 | 1021.1 |